Time,TemperatureF,DewpointF,PressureIn,WindDirection,WindDirectionDegrees,WindSpeedMPH,WindSpeedGustMPH,Humidity,HourlyPrecipIn,Conditions,Clouds,dailyrainin,SolarRadiationWatts/m^2,SoftwareType,DateUTC
2013-04-18 00:05:00,34.3,33.1,30.06,NNE,22,3.0,16.0,95,0.02,,,0.14,0.0,meteohub,2013-04-18 05:05:00,
2013-04-18 00:11:00,34.3,33.1,30.07,NNW,334,2.0,11.0,95,0.03,,,0.14,0.0,meteohub,2013-04-18 05:11:00,
2013-04-18 00:17:00,34.2,32.9,30.06,North,351,2.0,11.0,95,0.03,,,0.01,0.0,meteohub,2013-04-18 05:17:00,
2013-04-18 00:23:00,34.2,32.9,30.06,North,5,3.0,11.0,95,0.03,,,0.01,0.0,meteohub,2013-04-18 05:23:00,
2013-04-18 00:30:00,34.2,32.9,30.06,North,0,4.0,12.0,95,0.03,,,0.01,0.0,meteohub,2013-04-18 05:30:00,
2013-04-18 00:36:00,34.2,32.9,30.07,North,5,2.0,12.0,95,0.03,,,0.02,0.0,meteohub,2013-04-18 05:36:00,
2013-04-18 00:42:00,34.2,33.1,30.07,NNE,24,4.0,10.0,96,0.04,,,0.02,0.0,meteohub,2013-04-18 05:42:00,
2013-04-18 00:48:00,34.2,33.1,30.06,NNE,27,2.0,10.0,96,0.04,,,0.02,0.0,meteohub,2013-04-18 05:48:00,
2013-04-18 00:54:00,34.2,33.1,30.05,NNE,22,1.0,10.0,96,0.04,,,0.04,0.0,meteohub,2013-04-18 05:54:00,
2013-04-18 01:01:00,34.2,32.9,30.06,NNW,344,3.0,8.0,95,0.04,,,0.04,0.0,meteohub,2013-04-18 06:01:00,
2013-04-18 01:07:00,34.2,33.1,30.05,NNE,28,3.0,8.0,96,0.04,,,0.04,0.0,meteohub,2013-04-18 06:07:00,
2013-04-18 01:13:00,34.2,33.1,30.04,NNE,14,4.0,8.0,96,0.04,,,0.05,0.0,meteohub,2013-04-18 06:13:00,
2013-04-18 01:19:00,34.0,32.9,30.04,North,5,7.0,12.0,96,0.04,,,0.05,0.0,meteohub,2013-04-18 06:19:00,
2013-04-18 01:25:00,34.0,32.9,30.03,NNE,23,3.0,12.0,96,0.04,,,0.05,0.0,meteohub,2013-04-18 06:25:00,
2013-04-18 01:32:00,33.8,32.7,30.03,NE,45,2.0,8.0,96,0.03,,,0.05,0.0,meteohub,2013-04-18 06:32:00,
2013-04-18 01:38:00,33.6,32.5,30.02,NNE,13,4.0,8.0,96,0.03,,,0.05,0.0,meteohub,2013-04-18 06:38:00,
2013-04-18 01:44:00,33.6,32.5,30.01,NE,35,5.0,8.0,96,0.03,,,0.06,0.0,meteohub,2013-04-18 06:44:00,
2013-04-18 01:50:00,33.4,32.4,30.01,NNE,29,3.0,11.0,96,0.02,,,0.06,0.0,meteohub,2013-04-18 06:50:00,
2013-04-18 01:56:00,33.4,32.4,30.01,NNW,346,2.0,11.0,96,0.02,,,0.06,0.0,meteohub,2013-04-18 06:56:00,
2013-04-18 02:02:00,33.4,32.4,30.00,NE,41,4.0,11.0,96,0.02,,,0.06,0.0,meteohub,2013-04-18 07:02:00,
2013-04-18 02:07:00,33.4,32.4,30.00,North,355,4.0,11.0,96,0.02,,,0.06,0.0,meteohub,2013-04-18 07:07:00,
2013-04-18 02:13:00,33.3,32.2,29.98,NNE,13,5.0,11.0,96,0.02,,,0.06,0.0,meteohub,2013-04-18 07:13:00,
2013-04-18 02:19:00,33.3,32.2,29.99,NNE,25,3.0,13.0,96,0.01,,,0.06,0.0,meteohub,2013-04-18 07:19:00,
2013-04-18 02:25:00,33.3,32.2,29.97,North,355,6.0,13.0,96,0.01,,,0.06,0.0,meteohub,2013-04-18 07:25:00,
2013-04-18 02:31:00,33.3,32.2,29.96,ENE,61,8.0,13.0,96,0.00,,,0.06,0.0,meteohub,2013-04-18 07:31:00,
2013-04-18 02:38:00,33.1,32.0,29.96,NNE,13,5.0,13.0,96,0.00,,,0.06,0.0,meteohub,2013-04-18 07:38:00,
2013-04-18 02:44:00,33.1,32.0,29.96,NE,51,2.0,14.0,96,0.00,,,0.06,0.0,meteohub,2013-04-18 07:44:00,
2013-04-18 02:50:00,33.1,32.0,29.96,NE,48,4.0,14.0,96,0.00,,,0.06,0.0,meteohub,2013-04-18 07:50:00,
2013-04-18 02:56:00,33.1,32.0,29.96,NE,40,5.0,14.0,96,0.00,,,0.06,0.0,meteohub,2013-04-18 07:56:00,
2013-04-18 03:02:00,33.3,32.2,29.96,NNE,32,3.0,12.0,96,0.00,,,0.06,0.0,meteohub,2013-04-18 08:02:00,
2013-04-18 03:09:00,33.3,32.2,29.97,NE,36,2.0,12.0,96,0.00,,,0.06,0.0,meteohub,2013-04-18 08:09:00,
2013-04-18 03:15:00,33.3,32.2,29.97,NNE,29,3.0,12.0,96,0.00,,,0.06,0.0,meteohub,2013-04-18 08:15:00,
2013-04-18 03:21:00,33.3,32.2,29.98,North,5,3.0,8.0,96,0.00,,,0.06,0.0,meteohub,2013-04-18 08:21:00,
2013-04-18 03:27:00,33.3,32.2,29.98,NNW,348,9.0,13.0,96,0.00,,,0.06,0.0,meteohub,2013-04-18 08:27:00,
2013-04-18 03:33:00,33.3,32.2,29.97,North,355,4.0,13.0,96,0.00,,,0.06,0.0,meteohub,2013-04-18 08:33:00,
2013-04-18 03:39:00,33.3,32.2,29.96,NNE,30,3.0,13.0,96,0.00,,,0.06,0.0,meteohub,2013-04-18 08:39:00,
2013-04-18 03:46:00,33.3,32.2,29.96,NNW,348,2.0,12.0,96,0.00,,,0.06,0.0,meteohub,2013-04-18 08:46:00,
2013-04-18 03:52:00,33.1,32.0,29.95,North,351,7.0,12.0,96,0.00,,,0.06,0.0,meteohub,2013-04-18 08:52:00,
2013-04-18 03:58:00,33.1,32.0,29.96,NW,312,5.0,12.0,96,0.00,,,0.06,0.0,meteohub,2013-04-18 08:58:00,
2013-04-18 04:04:00,33.1,32.0,29.96,NNE,24,4.0,12.0,96,0.00,,,0.06,0.0,meteohub,2013-04-18 09:04:00,
2013-04-18 04:10:00,33.1,32.0,29.96,North,5,5.0,9.0,96,0.00,,,0.06,0.0,meteohub,2013-04-18 09:10:00,
2013-04-18 04:16:00,33.1,32.0,29.95,NE,38,2.0,9.0,96,0.00,,,0.06,0.0,meteohub,2013-04-18 09:16:00,
2013-04-18 04:23:00,32.9,31.8,29.95,NNE,18,3.0,8.0,96,0.00,,,0.06,0.0,meteohub,2013-04-18 09:23:00,
2013-04-18 04:29:00,32.9,31.8,29.95,North,5,3.0,8.0,96,0.00,,,0.06,0.0,meteohub,2013-04-18 09:29:00,
2013-04-18 04:35:00,32.7,31.6,29.95,NNW,331,4.0,17.0,96,0.00,,,0.06,0.0,meteohub,2013-04-18 09:35:00,
2013-04-18 04:41:00,32.7,31.6,29.95,NNE,32,1.0,10.0,96,0.00,,,0.06,0.0,meteohub,2013-04-18 09:41:00,
2013-04-18 04:47:00,32.7,31.6,29.96,North,355,3.0,10.0,96,0.00,,,0.06,0.0,meteohub,2013-04-18 09:47:00,
2013-04-18 04:54:00,32.7,31.6,29.95,North,10,3.0,12.0,96,0.00,,,0.06,0.0,meteohub,2013-04-18 09:54:00,
2013-04-18 05:00:00,32.7,31.6,29.95,North,350,2.0,12.0,96,0.00,,,0.06,0.0,meteohub,2013-04-18 10:00:00,
2013-04-18 05:06:00,32.7,31.6,29.95,North,0,3.0,12.0,96,0.00,,,0.06,0.0,meteohub,2013-04-18 10:06:00,
2013-04-18 05:12:00,32.7,31.6,29.95,NNW,339,4.0,10.0,96,0.00,,,0.06,0.0,meteohub,2013-04-18 10:12:00,
2013-04-18 05:18:00,32.5,31.5,29.96,NNW,348,5.0,10.0,96,0.00,,,0.06,0.0,meteohub,2013-04-18 10:18:00,
2013-04-18 05:25:00,32.5,31.5,29.96,NNE,33,1.0,10.0,96,0.00,,,0.07,0.0,meteohub,2013-04-18 10:25:00,
2013-04-18 05:31:00,32.5,31.5,29.96,North,355,3.0,13.0,96,0.01,,,0.07,0.0,meteohub,2013-04-18 10:31:00,
2013-04-18 05:37:00,32.5,31.5,29.96,North,349,5.0,13.0,96,0.01,,,0.07,0.0,meteohub,2013-04-18 10:37:00,
2013-04-18 05:43:00,32.4,31.3,29.96,North,0,4.0,13.0,96,0.01,,,0.07,0.0,meteohub,2013-04-18 10:43:00,
2013-04-18 05:50:00,32.4,31.3,29.94,North,11,2.0,13.0,96,0.01,,,0.07,0.0,meteohub,2013-04-18 10:50:00,
2013-04-18 05:56:00,32.4,31.3,29.92,NNE,14,4.0,11.0,96,0.01,,,0.07,0.0,meteohub,2013-04-18 10:56:00,
2013-04-18 06:02:00,32.2,31.1,29.92,NNE,32,3.0,11.0,96,0.01,,,0.07,0.0,meteohub,2013-04-18 11:02:00,
2013-04-18 06:07:00,32.2,31.1,29.93,North,350,3.0,11.0,96,0.01,,,0.07,0.0,meteohub,2013-04-18 11:07:00,
2013-04-18 06:13:00,32.2,31.1,29.93,NNE,25,7.0,11.0,96,0.01,,,0.07,0.0,meteohub,2013-04-18 11:13:00,
2013-04-18 06:19:00,32.2,31.1,29.92,NNE,16,4.0,11.0,96,0.01,,,0.07,0.0,meteohub,2013-04-18 11:19:00,
2013-04-18 06:25:00,32.2,31.1,29.91,NNE,31,3.0,11.0,96,0.01,,,0.07,0.0,meteohub,2013-04-18 11:25:00,
2013-04-18 06:31:00,32.0,30.9,29.90,NNE,30,4.0,11.0,96,0.01,,,0.07,0.0,meteohub,2013-04-18 11:31:00,
2013-04-18 06:38:00,31.8,30.7,29.89,North,350,4.0,11.0,96,0.00,,,0.07,0.0,meteohub,2013-04-18 11:38:00,
2013-04-18 06:44:00,31.8,30.7,29.89,NNW,329,4.0,11.0,96,0.00,,,0.07,5.0,meteohub,2013-04-18 11:44:00,
2013-04-18 06:50:00,31.8,30.7,29.90,North,351,2.0,11.0,96,0.00,,,0.07,5.0,meteohub,2013-04-18 11:50:00,
2013-04-18 06:56:00,31.8,30.7,29.90,NE,40,4.0,11.0,96,0.00,,,0.07,11.0,meteohub,2013-04-18 11:56:00,
2013-04-18 07:02:00,31.8,30.7,29.89,North,350,6.0,11.0,96,0.00,,,0.07,11.0,meteohub,2013-04-18 12:02:00,
2013-04-18 07:07:00,31.8,30.7,29.90,North,355,3.0,13.0,96,0.00,,,0.07,11.0,meteohub,2013-04-18 12:07:00,
2013-04-18 07:13:00,31.8,30.7,29.89,North,355,4.0,13.0,96,0.00,,,0.07,12.0,meteohub,2013-04-18 12:13:00,
2013-04-18 07:19:00,31.6,30.4,29.90,NE,44,4.0,13.0,95,0.00,,,0.07,14.0,meteohub,2013-04-18 12:19:00,
2013-04-18 07:26:00,31.6,30.4,29.90,NNW,337,4.0,13.0,95,0.00,,,0.07,19.0,meteohub,2013-04-18 12:26:00,
2013-04-18 07:32:00,31.8,30.6,29.91,North,355,3.0,13.0,95,0.00,,,0.07,25.0,meteohub,2013-04-18 12:32:00,
2013-04-18 07:38:00,31.8,30.6,29.88,NE,39,5.0,13.0,95,0.00,,,0.07,28.0,meteohub,2013-04-18 12:38:00,
2013-04-18 07:44:00,31.6,30.4,29.87,NNE,28,6.0,13.0,95,0.00,,,0.07,35.0,meteohub,2013-04-18 12:44:00,
2013-04-18 07:51:00,31.6,30.4,29.89,NNW,337,3.0,13.0,95,0.00,,,0.07,33.0,meteohub,2013-04-18 12:51:00,
2013-04-18 07:57:00,31.6,30.4,29.91,NE,36,4.0,10.0,95,0.00,,,0.07,30.0,meteohub,2013-04-18 12:57:00,
2013-04-18 08:03:00,31.6,30.2,29.91,NNE,30,3.0,10.0,94,0.00,,,0.07,30.0,meteohub,2013-04-18 13:03:00,
2013-04-18 08:09:00,31.6,30.2,29.91,NNW,343,5.0,10.0,94,0.00,,,0.07,28.0,meteohub,2013-04-18 13:09:00,
2013-04-18 08:15:00,31.6,30.2,29.91,NNE,19,5.0,12.0,94,0.00,,,0.07,28.0,meteohub,2013-04-18 13:15:00,
2013-04-18 08:22:00,31.6,30.2,29.90,North,9,3.0,12.0,94,0.00,,,0.07,28.0,meteohub,2013-04-18 13:22:00,
2013-04-18 08:28:00,31.5,30.0,29.89,NE,34,4.0,12.0,94,0.00,,,0.07,32.0,meteohub,2013-04-18 13:28:00,
2013-04-18 08:34:00,31.5,30.0,29.88,NNW,336,4.0,12.0,94,0.00,,,0.07,35.0,meteohub,2013-04-18 13:34:00,
2013-04-18 08:41:00,31.6,30.2,29.88,WNW,287,6.0,13.0,94,0.00,,,0.07,39.0,meteohub,2013-04-18 13:41:00,
2013-04-18 08:47:00,31.6,30.2,29.86,North,0,6.0,13.0,94,0.00,,,0.07,46.0,meteohub,2013-04-18 13:47:00,
2013-04-18 08:53:00,31.6,30.2,29.86,NNW,333,6.0,13.0,94,0.00,,,0.07,58.0,meteohub,2013-04-18 13:53:00,
2013-04-18 08:59:00,31.6,30.2,29.84,North,0,6.0,15.0,94,0.00,,,0.07,77.0,meteohub,2013-04-18 13:59:00,
2013-04-18 09:05:00,31.6,30.2,29.84,North,5,7.0,15.0,94,0.00,,,0.07,95.0,meteohub,2013-04-18 14:05:00,
2013-04-18 09:12:00,31.8,30.4,29.83,NNE,17,4.0,15.0,94,0.00,,,0.07,128.0,meteohub,2013-04-18 14:12:00,
2013-04-18 09:18:00,31.8,30.4,29.83,NNW,343,5.0,13.0,94,0.00,,,0.07,116.0,meteohub,2013-04-18 14:18:00,
2013-04-18 09:24:00,32.0,30.2,29.82,NE,36,19.0,19.0,93,0.00,,,0.07,100.0,meteohub,2013-04-18 14:24:00,
2013-04-18 09:30:00,32.2,30.4,29.82,NNE,25,5.0,13.0,93,0.00,,,0.07,95.0,meteohub,2013-04-18 14:30:00,
2013-04-18 09:37:00,32.2,30.4,29.84,NNW,346,7.0,19.0,93,0.00,,,0.07,65.0,meteohub,2013-04-18 14:37:00,
2013-04-18 09:43:00,32.2,30.4,29.82,NE,38,5.0,19.0,93,0.00,,,0.07,120.0,meteohub,2013-04-18 14:43:00,
2013-04-18 09:49:00,32.4,30.6,29.78,North,5,6.0,19.0,93,0.00,,,0.07,139.0,meteohub,2013-04-18 14:49:00,
2013-04-18 09:55:00,32.5,30.7,29.80,NE,41,8.0,17.0,93,0.00,,,0.07,160.0,meteohub,2013-04-18 14:55:00,
2013-04-18 10:01:00,32.7,30.7,29.83,North,350,3.0,14.0,92,0.00,,,0.07,100.0,meteohub,2013-04-18 15:01:00,
2013-04-18 10:08:00,32.7,30.7,29.84,North,0,4.0,14.0,92,0.00,,,0.07,49.0,meteohub,2013-04-18 15:08:00,
2013-04-18 10:14:00,32.7,30.7,29.82,NNW,342,6.0,17.0,92,0.00,,,0.07,58.0,meteohub,2013-04-18 15:14:00,
2013-04-18 10:20:00,32.7,30.7,29.82,NE,50,9.0,10.0,92,0.00,,,0.07,47.0,meteohub,2013-04-18 15:20:00,
2013-04-18 10:26:00,32.7,30.7,29.81,NNE,26,5.0,10.0,92,0.00,,,0.07,49.0,meteohub,2013-04-18 15:26:00,
2013-04-18 10:32:00,32.7,30.7,29.82,North,0,4.0,14.0,92,0.00,,,0.07,47.0,meteohub,2013-04-18 15:32:00,
2013-04-18 10:39:00,32.7,30.7,29.82,NNE,23,3.0,14.0,92,0.00,,,0.07,35.0,meteohub,2013-04-18 15:39:00,
2013-04-18 10:45:00,32.7,30.7,29.82,NNE,25,3.0,14.0,92,0.00,,,0.07,28.0,meteohub,2013-04-18 15:45:00,
2013-04-18 10:51:00,32.7,30.9,29.82,ENE,62,2.0,14.0,93,0.00,,,0.07,30.0,meteohub,2013-04-18 15:51:00,
2013-04-18 10:57:00,32.7,30.9,29.82,NE,44,6.0,14.0,93,0.00,,,0.07,32.0,meteohub,2013-04-18 15:57:00,
2013-04-18 11:03:00,32.7,30.9,29.83,NE,45,7.0,13.0,93,0.01,,,0.07,39.0,meteohub,2013-04-18 16:03:00,
2013-04-18 11:09:00,32.5,30.7,29.83,NE,48,4.0,13.0,93,0.01,,,0.08,37.0,meteohub,2013-04-18 16:09:00,
2013-04-18 11:16:00,32.7,30.9,29.82,NNW,327,5.0,13.0,93,0.01,,,0.08,54.0,meteohub,2013-04-18 16:16:00,
2013-04-18 11:22:00,32.7,30.9,29.80,North,0,6.0,13.0,93,0.01,,,0.08,69.0,meteohub,2013-04-18 16:22:00,
2013-04-18 11:28:00,32.7,30.9,29.78,NE,41,7.0,13.0,93,0.01,,,0.08,111.0,meteohub,2013-04-18 16:28:00,
2013-04-18 11:34:00,32.7,31.1,29.77,NE,43,11.0,14.0,94,0.01,,,0.08,186.0,meteohub,2013-04-18 16:34:00,
2013-04-18 11:40:00,32.7,30.9,29.77,North,355,3.0,13.0,93,0.02,,,0.09,86.0,meteohub,2013-04-18 16:40:00,
2013-04-18 11:46:00,32.7,30.9,29.79,NE,42,5.0,13.0,93,0.02,,,0.10,46.0,meteohub,2013-04-18 16:46:00,
2013-04-18 11:53:00,32.7,30.9,29.78,NE,40,3.0,13.0,93,0.03,,,0.10,113.0,meteohub,2013-04-18 16:53:00,
2013-04-18 11:59:00,32.7,31.1,29.79,North,0,3.0,12.0,94,0.02,,,0.10,60.0,meteohub,2013-04-18 16:59:00,
2013-04-18 12:05:00,32.7,31.1,29.78,North,355,6.0,12.0,94,0.02,,,0.10,63.0,meteohub,2013-04-18 17:05:00,
2013-04-18 12:11:00,32.7,31.1,29.79,NE,40,4.0,10.0,94,0.02,,,0.10,49.0,meteohub,2013-04-18 17:11:00,
2013-04-18 12:17:00,32.7,31.1,29.77,NNE,30,4.0,10.0,94,0.02,,,0.10,83.0,meteohub,2013-04-18 17:17:00,
2013-04-18 12:22:00,32.7,31.1,29.78,NE,48,6.0,10.0,94,0.02,,,0.11,67.0,meteohub,2013-04-18 17:22:00,
2013-04-18 12:28:00,32.7,31.1,29.78,NNE,18,4.0,11.0,94,0.03,,,0.11,74.0,meteohub,2013-04-18 17:28:00,
2013-04-18 12:34:00,32.7,31.1,29.75,North,5,5.0,11.0,94,0.03,,,0.11,132.0,meteohub,2013-04-18 17:34:00,
2013-04-18 12:40:00,32.7,31.1,29.77,North,5,4.0,11.0,94,0.03,,,0.12,46.0,meteohub,2013-04-18 17:40:00,
2013-04-18 12:46:00,32.7,31.1,29.77,NNE,31,4.0,13.0,94,0.04,,,0.12,44.0,meteohub,2013-04-18 17:46:00,
2013-04-18 12:53:00,32.7,31.5,29.75,NE,49,8.0,13.0,95,0.04,,,0.12,63.0,meteohub,2013-04-18 17:53:00,
2013-04-18 12:59:00,32.7,31.5,29.75,North,355,5.0,13.0,95,0.04,,,0.14,62.0,meteohub,2013-04-18 17:59:00,
2013-04-18 13:05:00,32.7,31.5,29.75,NNE,13,4.0,13.0,95,0.04,,,0.14,51.0,meteohub,2013-04-18 18:05:00,
2013-04-18 13:11:00,32.5,31.3,29.77,NNW,343,10.0,15.0,95,0.04,,,0.14,37.0,meteohub,2013-04-18 18:11:00,
2013-04-18 13:17:00,32.5,31.3,29.74,NE,34,3.0,15.0,95,0.04,,,0.14,39.0,meteohub,2013-04-18 18:17:00,
2013-04-18 13:22:00,32.5,31.3,29.73,North,355,5.0,11.0,95,0.04,,,0.14,49.0,meteohub,2013-04-18 18:22:00,
2013-04-18 13:28:00,32.5,31.3,29.73,NNW,343,3.0,11.0,95,0.03,,,0.15,74.0,meteohub,2013-04-18 18:28:00,
2013-04-18 13:34:00,32.5,31.5,29.74,NNW,329,6.0,19.0,96,0.03,,,0.15,53.0,meteohub,2013-04-18 18:34:00,
2013-04-18 13:41:00,32.5,31.5,29.73,North,5,4.0,9.0,96,0.04,,,0.16,128.0,meteohub,2013-04-18 18:41:00,
2013-04-18 13:47:00,32.5,31.5,29.72,North,5,4.0,9.0,96,0.04,,,0.16,114.0,meteohub,2013-04-18 18:47:00,
2013-04-18 13:53:00,32.5,31.5,29.73,NNE,28,4.0,14.0,96,0.03,,,0.16,88.0,meteohub,2013-04-18 18:53:00,
2013-04-18 13:59:00,32.5,31.5,29.73,North,5,10.0,15.0,96,0.03,,,0.17,79.0,meteohub,2013-04-18 18:59:00,
2013-04-18 14:06:00,32.5,31.5,29.73,North,5,3.0,15.0,96,0.03,,,0.17,60.0,meteohub,2013-04-18 19:06:00,
2013-04-18 14:12:00,32.5,31.5,29.74,North,11,3.0,12.0,96,0.04,,,0.17,30.0,meteohub,2013-04-18 19:12:00,
2013-04-18 14:18:00,32.5,31.5,29.75,North,0,4.0,12.0,96,0.03,,,0.18,28.0,meteohub,2013-04-18 19:18:00,
2013-04-18 14:25:00,32.5,31.5,29.72,NNW,344,5.0,10.0,96,0.03,,,0.18,39.0,meteohub,2013-04-18 19:25:00,
2013-04-18 14:31:00,32.5,31.5,29.70,North,355,5.0,11.0,96,0.02,,,0.18,70.0,meteohub,2013-04-18 19:31:00,
2013-04-18 14:37:00,32.5,31.5,29.70,NNE,17,4.0,11.0,96,0.02,,,0.19,72.0,meteohub,2013-04-18 19:37:00,
2013-04-18 14:43:00,32.5,31.5,29.71,NNE,13,3.0,14.0,96,0.03,,,0.19,39.0,meteohub,2013-04-18 19:43:00,
2013-04-18 14:49:00,32.5,31.5,29.72,NNE,16,2.0,13.0,96,0.03,,,0.19,54.0,meteohub,2013-04-18 19:49:00,
2013-04-18 14:55:00,32.5,31.5,29.72,NNE,29,2.0,13.0,96,0.03,,,0.19,46.0,meteohub,2013-04-18 19:55:00,
2013-04-18 15:02:00,32.5,31.5,29.70,NE,44,8.0,13.0,96,0.03,,,0.20,42.0,meteohub,2013-04-18 20:02:00,
2013-04-18 15:08:00,32.4,31.3,29.68,North,0,3.0,13.0,96,0.03,,,0.21,39.0,meteohub,2013-04-18 20:08:00,
2013-04-18 15:14:00,32.4,31.3,29.65,NNE,18,4.0,14.0,96,0.03,,,0.21,53.0,meteohub,2013-04-18 20:14:00,
2013-04-18 15:20:00,32.4,31.3,29.65,NNE,25,5.0,13.0,96,0.04,,,0.21,37.0,meteohub,2013-04-18 20:20:00,
2013-04-18 15:26:00,32.4,31.3,29.67,NE,38,5.0,13.0,96,0.04,,,0.22,23.0,meteohub,2013-04-18 20:26:00,
2013-04-18 15:32:00,32.4,31.3,29.68,WNW,288,7.0,15.0,96,0.04,,,0.22,40.0,meteohub,2013-04-18 20:32:00,
2013-04-18 15:37:00,32.4,31.3,29.69,NE,36,4.0,15.0,96,0.04,,,0.22,46.0,meteohub,2013-04-18 20:37:00,
2013-04-18 15:43:00,32.4,31.3,29.69,North,11,4.0,12.0,96,0.03,,,0.22,53.0,meteohub,2013-04-18 20:43:00,
2013-04-18 15:49:00,32.5,31.5,29.69,North,0,5.0,10.0,96,0.03,,,0.23,84.0,meteohub,2013-04-18 20:49:00,
2013-04-18 15:55:00,32.5,31.8,29.68,North,0,7.0,10.0,97,0.03,,,0.23,98.0,meteohub,2013-04-18 20:55:00,
2013-04-18 16:01:00,32.5,31.8,29.68,North,350,5.0,12.0,97,0.04,,,0.24,100.0,meteohub,2013-04-18 21:01:00,
2013-04-18 16:08:00,32.5,31.8,29.69,NNW,348,9.0,12.0,97,0.04,,,0.25,77.0,meteohub,2013-04-18 21:08:00,
2013-04-18 16:14:00,32.5,31.8,29.68,NW,304,8.0,12.0,97,0.04,,,0.25,76.0,meteohub,2013-04-18 21:14:00,
2013-04-18 16:20:00,32.5,31.8,29.68,North,0,5.0,12.0,97,0.04,,,0.26,93.0,meteohub,2013-04-18 21:20:00,
2013-04-18 16:26:00,32.5,31.8,29.68,North,355,5.0,12.0,97,0.04,,,0.26,95.0,meteohub,2013-04-18 21:26:00,
2013-04-18 16:32:00,32.5,31.8,29.67,NNE,29,7.0,22.0,97,0.05,,,0.26,98.0,meteohub,2013-04-18 21:32:00,
2013-04-18 16:37:00,32.5,31.8,29.67,NNE,13,5.0,22.0,97,0.05,,,0.27,93.0,meteohub,2013-04-18 21:37:00,
2013-04-18 16:43:00,32.5,31.8,29.67,North,5,6.0,20.0,97,0.05,,,0.27,70.0,meteohub,2013-04-18 21:43:00,
2013-04-18 16:49:00,32.5,31.8,29.67,North,5,5.0,17.0,97,0.05,,,0.28,63.0,meteohub,2013-04-18 21:49:00,
2013-04-18 16:55:00,32.7,32.0,29.67,NNE,14,8.0,17.0,97,0.05,,,0.28,86.0,meteohub,2013-04-18 21:55:00,
2013-04-18 17:01:00,32.7,32.0,29.65,NE,53,4.0,20.0,97,0.05,,,0.29,93.0,meteohub,2013-04-18 22:01:00,
2013-04-18 17:08:00,32.5,31.8,29.67,North,5,5.0,20.0,97,0.05,,,0.30,62.0,meteohub,2013-04-18 22:08:00,
2013-04-18 17:14:00,32.5,31.8,29.68,North,355,8.0,20.0,97,0.05,,,0.30,32.0,meteohub,2013-04-18 22:14:00,
2013-04-18 17:20:00,32.5,31.8,29.65,North,355,8.0,17.0,97,0.05,,,0.30,54.0,meteohub,2013-04-18 22:20:00,
2013-04-18 17:26:00,32.5,31.8,29.65,NE,44,5.0,17.0,97,0.05,,,0.31,76.0,meteohub,2013-04-18 22:26:00,
2013-04-18 17:32:00,32.5,31.8,29.65,NNW,348,7.0,17.0,97,0.04,,,0.31,74.0,meteohub,2013-04-18 22:32:00,
2013-04-18 17:38:00,32.5,31.8,29.65,NE,43,5.0,17.0,97,0.04,,,0.32,46.0,meteohub,2013-04-18 22:38:00,
2013-04-18 17:45:00,32.5,31.8,29.64,NNW,336,3.0,17.0,97,0.04,,,0.32,28.0,meteohub,2013-04-18 22:45:00,
2013-04-18 17:51:00,32.5,31.8,29.63,North,355,4.0,14.0,97,0.04,,,0.33,58.0,meteohub,2013-04-18 22:51:00,
2013-04-18 17:57:00,32.7,32.0,29.65,NNE,26,3.0,14.0,97,0.04,,,0.33,62.0,meteohub,2013-04-18 22:57:00,
2013-04-18 18:03:00,32.7,32.0,29.65,North,0,2.0,14.0,97,0.05,,,0.33,47.0,meteohub,2013-04-18 23:03:00,
2013-04-18 18:09:00,32.7,32.0,29.65,NE,41,5.0,14.0,97,0.04,,,0.34,67.0,meteohub,2013-04-18 23:09:00,
2013-04-18 18:16:00,32.7,32.0,29.65,NE,35,4.0,12.0,97,0.04,,,0.34,81.0,meteohub,2013-04-18 23:16:00,
2013-04-18 18:22:00,32.7,32.0,29.65,NNW,346,5.0,12.0,97,0.04,,,0.35,42.0,meteohub,2013-04-18 23:22:00,
2013-04-18 18:28:00,32.7,32.0,29.64,North,11,2.0,12.0,97,0.04,,,0.35,40.0,meteohub,2013-04-18 23:28:00,
2013-04-18 18:34:00,32.5,31.8,29.64,NW,326,5.0,12.0,97,0.04,,,0.35,40.0,meteohub,2013-04-18 23:34:00,
2013-04-18 18:40:00,32.5,31.8,29.64,North,355,5.0,12.0,97,0.04,,,0.36,33.0,meteohub,2013-04-18 23:40:00,
2013-04-18 18:47:00,32.5,31.8,29.64,North,5,4.0,12.0,97,0.04,,,0.36,35.0,meteohub,2013-04-18 23:47:00,
2013-04-18 18:53:00,32.5,31.8,29.64,NNE,22,4.0,12.0,97,0.04,,,0.36,33.0,meteohub,2013-04-18 23:53:00,
2013-04-18 18:59:00,32.5,31.8,29.64,NNW,342,5.0,12.0,97,0.04,,,0.37,23.0,meteohub,2013-04-18 23:59:00,
2013-04-18 19:05:00,32.5,31.8,29.64,NNW,348,6.0,12.0,97,0.04,,,0.37,16.0,meteohub,2013-04-19 00:05:00,
2013-04-18 19:11:00,32.5,31.8,29.64,NNE,13,4.0,11.0,97,0.04,,,0.37,11.0,meteohub,2013-04-19 00:11:00,
2013-04-18 19:17:00,32.5,31.8,29.63,North,355,3.0,11.0,97,0.04,,,0.37,7.0,meteohub,2013-04-19 00:17:00,
2013-04-18 19:22:00,32.4,31.6,29.63,North,351,3.0,10.0,97,0.04,,,0.38,5.0,meteohub,2013-04-19 00:22:00,
2013-04-18 19:28:00,32.4,31.6,29.64,NE,40,4.0,10.0,97,0.04,,,0.38,5.0,meteohub,2013-04-19 00:28:00,
2013-04-18 19:34:00,32.4,31.6,29.64,North,0,4.0,10.0,97,0.04,,,0.39,0.0,meteohub,2013-04-19 00:34:00,
2013-04-18 19:40:00,32.4,31.6,29.64,North,355,7.0,10.0,97,0.03,,,0.39,0.0,meteohub,2013-04-19 00:40:00,
2013-04-18 19:46:00,32.4,31.6,29.64,NNE,14,2.0,10.0,97,0.03,,,0.40,0.0,meteohub,2013-04-19 00:46:00,
2013-04-18 19:53:00,32.4,31.6,29.65,NNE,24,2.0,10.0,97,0.03,,,0.40,0.0,meteohub,2013-04-19 00:53:00,
2013-04-18 19:59:00,32.4,31.6,29.65,NNW,335,4.0,11.0,97,0.03,,,0.40,0.0,meteohub,2013-04-19 00:59:00,
2013-04-18 20:05:00,32.4,31.6,29.65,North,355,3.0,11.0,97,0.03,,,0.40,0.0,meteohub,2013-04-19 01:05:00,
2013-04-18 20:11:00,32.4,31.6,29.65,NE,41,2.0,13.0,97,0.03,,,0.40,0.0,meteohub,2013-04-19 01:11:00,
2013-04-18 20:17:00,32.4,31.6,29.65,NW,305,3.0,13.0,97,0.03,,,0.41,0.0,meteohub,2013-04-19 01:17:00,
2013-04-18 20:23:00,32.2,31.5,29.65,NNE,21,6.0,11.0,97,0.02,,,0.41,0.0,meteohub,2013-04-19 01:23:00,
2013-04-18 20:30:00,32.2,31.5,29.65,North,350,3.0,12.0,97,0.03,,,0.42,0.0,meteohub,2013-04-19 01:30:00,
2013-04-18 20:36:00,32.2,31.5,29.65,NNW,333,2.0,12.0,97,0.03,,,0.42,0.0,meteohub,2013-04-19 01:36:00,
2013-04-18 20:42:00,32.2,31.5,29.65,NNW,329,1.0,12.0,97,0.02,,,0.42,0.0,meteohub,2013-04-19 01:42:00,
2013-04-18 20:48:00,32.0,31.3,29.66,NNW,343,3.0,12.0,97,0.02,,,0.42,0.0,meteohub,2013-04-19 01:48:00,
2013-04-18 20:54:00,31.8,31.1,29.66,WNW,288,6.0,12.0,97,0.02,,,0.42,0.0,meteohub,2013-04-19 01:54:00,
2013-04-18 21:00:00,31.8,31.1,29.66,NW,326,3.0,13.0,97,0.02,,,0.42,0.0,meteohub,2013-04-19 02:00:00,
2013-04-18 21:07:00,31.6,30.9,29.66,NW,319,3.0,13.0,97,0.02,,,0.42,0.0,meteohub,2013-04-19 02:07:00,
2013-04-18 21:13:00,31.6,30.9,29.67,NNW,344,3.0,13.0,97,0.02,,,0.43,0.0,meteohub,2013-04-19 02:13:00,
2013-04-18 21:19:00,31.6,30.9,29.67,NW,320,3.0,15.0,97,0.02,,,0.43,0.0,meteohub,2013-04-19 02:19:00,
2013-04-18 21:25:00,31.6,30.9,29.67,North,0,2.0,15.0,97,0.02,,,0.43,0.0,meteohub,2013-04-19 02:25:00,
2013-04-18 21:31:00,31.6,30.9,29.67,NE,34,1.0,21.0,97,0.02,,,0.44,0.0,meteohub,2013-04-19 02:31:00,
2013-04-18 21:38:00,31.6,30.9,29.67,NNE,19,5.0,21.0,97,0.02,,,0.44,0.0,meteohub,2013-04-19 02:38:00,
2013-04-18 21:44:00,31.5,30.7,29.67,SW,228,4.0,21.0,97,0.02,,,0.44,0.0,meteohub,2013-04-19 02:44:00,
2013-04-18 21:50:00,31.5,30.7,29.66,North,0,10.0,13.0,97,0.03,,,0.44,0.0,meteohub,2013-04-19 02:50:00,
2013-04-18 21:56:00,31.5,30.7,29.66,NNW,348,4.0,17.0,97,0.03,,,0.45,0.0,meteohub,2013-04-19 02:56:00,
2013-04-18 22:02:00,31.5,30.7,29.66,NNW,328,9.0,17.0,97,0.03,,,0.46,0.0,meteohub,2013-04-19 03:02:00,
2013-04-18 22:08:00,31.5,30.7,29.66,NNW,333,4.0,13.0,97,0.04,,,0.46,0.0,meteohub,2013-04-19 03:08:00,
2013-04-18 22:15:00,31.5,30.7,29.66,NW,309,2.0,13.0,97,0.04,,,0.46,0.0,meteohub,2013-04-19 03:15:00,
2013-04-18 22:21:00,31.3,30.6,29.66,WNW,302,13.0,13.0,97,0.03,,,0.46,0.0,meteohub,2013-04-19 03:21:00,
2013-04-18 22:27:00,31.5,30.7,29.66,NNW,342,5.0,13.0,97,0.03,,,0.47,0.0,meteohub,2013-04-19 03:27:00,
2013-04-18 22:33:00,31.5,30.7,29.65,NNW,327,2.0,15.0,97,0.03,,,0.47,0.0,meteohub,2013-04-19 03:33:00,
2013-04-18 22:39:00,31.5,30.7,29.65,SSW,209,2.0,10.0,97,0.03,,,0.47,0.0,meteohub,2013-04-19 03:39:00,
2013-04-18 22:45:00,31.5,30.7,29.65,NNW,348,4.0,10.0,97,0.03,,,0.47,0.0,meteohub,2013-04-19 03:45:00,
2013-04-18 22:52:00,31.5,30.7,29.65,North,349,3.0,10.0,97,0.03,,,0.48,0.0,meteohub,2013-04-19 03:52:00,
2013-04-18 22:58:00,31.5,30.7,29.64,NW,323,4.0,10.0,97,0.03,,,0.48,0.0,meteohub,2013-04-19 03:58:00,
2013-04-18 23:02:00,31.5,30.7,29.64,NNW,342,4.0,13.0,97,0.02,,,0.48,0.0,meteohub,2013-04-19 04:02:00,
2013-04-18 23:04:00,31.5,30.7,29.63,NE,44,5.0,13.0,97,0.02,,,0.48,0.0,meteohub,2013-04-19 04:04:00,
2013-04-18 23:10:00,31.5,30.7,29.63,NNW,329,4.0,12.0,97,0.02,,,0.48,0.0,meteohub,2013-04-19 04:10:00,
2013-04-18 23:16:00,31.5,30.7,29.63,NW,325,3.0,12.0,97,0.02,,,0.49,0.0,meteohub,2013-04-19 04:16:00,
2013-04-18 23:23:00,31.5,30.7,29.63,NW,319,8.0,13.0,97,0.03,,,0.49,0.0,meteohub,2013-04-19 04:23:00,
2013-04-18 23:29:00,31.5,30.7,29.63,NNE,16,3.0,13.0,97,0.02,,,0.49,0.0,meteohub,2013-04-19 04:29:00,
2013-04-18 23:32:00,31.5,30.7,29.63,NNW,346,4.0,13.0,97,0.02,,,0.49,0.0,meteohub,2013-04-19 04:32:00,
2013-04-18 23:35:00,31.5,30.7,29.63,NNW,330,2.0,13.0,97,0.02,,,0.49,0.0,meteohub,2013-04-19 04:35:00,
2013-04-18 23:41:00,31.5,30.7,29.62,NNW,336,2.0,12.0,97,0.03,,,0.49,0.0,meteohub,2013-04-19 04:41:00,
2013-04-18 23:47:00,31.5,30.7,29.62,NNW,340,7.0,12.0,97,0.03,,,0.50,0.0,meteohub,2013-04-19 04:47:00,
2013-04-18 23:53:00,31.3,30.6,29.62,North,355,3.0,13.0,97,0.02,,,0.50,0.0,meteohub,2013-04-19 04:53:00,